Location: LDNL
(36.4545°S, 141.6685°E)
Time: 03:25:57
(UTC+11:00)

Vanguard 2 - Pass Details

Date: 15 August 2022
Orbit: 552 x 2934 km, 32.9° (Epoch: 06 October)

Event Time Altitude Azimuth Distance (km) Brightness Sun altitude
Rises 20:05:08 0° 266° (W) 6,517 13.6 -25.7°
Reaches altitude 10° 20:09:53 10° 268° (W) 5,263 12.8 -26.7°
Maximum altitude 20:24:16 69° 346° (NNW) 1,916 9.4 -29.5°
Enters shadow 20:27:12 50° 47° (NE) 1,997 9.2 -30.1°
Drops below altitude 10° 20:32:49 10° 67° (ENE) 3,277 - -31.3°
Sets 20:35:07 0° 70° (ENE) 3,994 - -31.7°
